Flag for Canada Weather past 2 weeks in Iqaluit, Nunavut, Canada

Now
21 °F

Passing clouds.


Feels Like: 14 °F
Forecast: 16 / 28 °F
Wind: 6 mph from North

Location: Iqaluit

Current Time: May 26, 2015 at 2:05:27 AM

Latest Report: May 26, 2015 at 1:00 AM


Visibility: 25 mi

Pressure: 29.75 "Hg

Humidity: 74%

Dew point: 14 °F

Location of IqaluitLocation

Historic Weather in Iqaluit — Graph

°F

Iqaluit temperature yesterday

Maximum temperature yesterday: 32 °F (at 1:00 PM)
Minimum temperature yesterday: 21 °F (at 11:00 PM)
Average temperature yesterday: 27 °F

Past Weeks' High & Low Weather Summary

 TemperatureHumidityPressure
High39 °F (May 16, 3:00 PM)93% (May 17, 7:00 AM)29.99 "Hg (May 17, 7:00 AM)
Low7 °F (May 14, 2:00 AM)54% (May 21, 11:00 AM)29.40 "Hg (May 24, 2:00 PM)
Average25 °F77%29.70 "Hg
* Reported Midnight between May 10 and May 11 — Midnight between May 25 and May 26, Iqaluit, Weather by CustomWeather, © 2015

Note: Actual official high and low records may vary slightly from our data, if they occured in-between our weather recording intervals... More about our weather records

Advertising

Iqaluit weather history for previous 24 hours

 ConditionsComfort  
Time TempWeatherWind HumidityBarometerVisibility
12:00 AM
Tue, May 26
21 °FMostly cloudy.10 mph68%29.76 "Hg25 mi
11:00 PM
Mon, May 25
21 °FBroken clouds.10 mph74%29.77 "Hg30 mi
10:00 PM23 °FBroken clouds.3 mph74%29.77 "Hg30 mi
9:00 PM25 °FPartly sunny.7 mph69%29.78 "Hg30 mi
8:00 PM25 °FPartly sunny.10 mph69%29.78 "Hg30 mi
7:00 PM25 °FPartly sunny.10 mph74%29.77 "Hg30 mi
6:00 PM28 °FBroken clouds.8 mph64%29.76 "Hg30 mi
5:00 PM28 °FPartly sunny.12 mph64%29.74 "Hg30 mi
4:00 PM30 °FPartly sunny.10 mph59%29.72 "Hg30 mi
3:00 PM30 °FPartly sunny.8 mph59%29.70 "Hg30 mi
2:00 PM32 °FPartly sunny.6 mph55%29.69 "Hg30 mi
1:00 PM32 °FPartly sunny.7 mph60%29.67 "Hg30 mi
12:00 PM28 °FLight snow. Overcast.15 mph86%29.65 "Hg30 mi
11:00 AM30 °FPartly sunny.16 mph69%29.64 "Hg25 mi
10:00 AM28 °FOvercast.14 mph69%29.62 "Hg30 mi
9:00 AM28 °FOvercast.12 mph69%29.62 "Hg30 mi
8:00 AM27 °FOvercast.10 mph74%29.60 "Hg30 mi
7:00 AM27 °FMore clouds than sun.8 mph74%29.59 "Hg30 mi
6:00 AM25 °FMostly cloudy.6 mph80%29.58 "Hg30 mi
5:00 AM25 °FOvercast.5 mph80%29.57 "Hg30 mi
4:00 AM25 °FPartly sunny.3 mph74%29.56 "Hg30 mi
3:00 AM23 °FPassing clouds.3 mph80%29.54 "Hg25 mi
2:00 AM25 °FPartly cloudy.3 mph74%29.53 "Hg25 mi
Weather by CustomWeather, © 2015

See weather overviewHow to use our weather pages